Dublin, Ireland

8:31 PM IST on August 17, 2017 (GMT +0100)
Dublin International

Weather History for EIDW - February, 2013

Change the Weather History Date:

Tuesday, February 12, 2013

  Actual Average Record
Temperature  
Mean Temperature 38 °F -  
Max Temperature 41 °F 47 °F 55 °F (1997)
Min Temperature 36 °F 37 °F 30 °F (2003)
Degree Days  
Heating Degree Days 26    
Moisture  
Dew Point 37 °F    
Average Humidity 92    
Maximum Humidity 100    
Minimum Humidity 87    
Precipitation  
Precipitation 0.00 in 0.07 in - ()
Sea Level Pressure  
Sea Level Pressure 29.93 in    
Wind  
Wind Speed 9 mph ()    
Max Wind Speed 15 mph    
Max Gust Speed -    
Visibility 4.8 miles    
Events Rain    
Averages and records for this station are not official NWS values.
T = Trace of Precipitation, MM = Missing Value Source: Averaged Metar Reports

Daily Weather History Graph

Daily Weather History Graph

Search for Another Location

Airport or City:

Trip Planner

Search our weather history database for the weather conditions in past years. The results will help you decide how hot, cold, wet, or windy it might be!

Date:

Astronomy

Feb. 12, 2013 Rise Set
Actual Time 7:49 AM GMT 5:29 PM GMT
Civil Twilight 7:12 AM GMT 6:06 PM GMT
Nautical Twilight 6:31 AM GMT 6:47 PM GMT
Astronomical Twilight 5:51 AM GMT 7:28 PM GMT
Moon 8:11 AM GMT (2/12) 8:49 PM GMT (2/12)
Length of Visible Light 10h 53m
Length of Day
9h 40m
Waxing Crescent, 6% of the Moon is Illuminated
Feb 12
Waxing Crescent
Feb 17
First Quarter
Feb 25
Full
Mar 4
Last Quarter
Mar 11
New

Hourly Weather History & Observations

Time (GMT) Temp. Windchill Dew Point Humidity Pressure Visibility Wind Dir Wind Speed Gust Speed Precip Events Conditions
12:00 AM 38 °F - 37 °F 94% 29.85 in 4 mi East 6.7 mph - - Rain Light Rain
12:00 AM 37.4 °F 32.8 °F 37.4 °F 100% 29.83 in 3.7 mi East 5.8 mph - N/A Rain Light Rain
12:30 AM 37.4 °F 30.3 °F 37.4 °F 100% 29.83 in 3.7 mi East 10.4 mph - N/A Rain Light Rain
1:00 AM 37.4 °F 30.3 °F 35.6 °F 93% 29.83 in 4.3 mi East 10.4 mph - N/A Rain Light Rain
1:30 AM 37.4 °F 30.8 °F 35.6 °F 93% 29.83 in 4.3 mi ESE 9.2 mph - N/A Rain Light Rain
2:00 AM 37.4 °F 31.4 °F 35.6 °F 93% 29.86 in 5.0 mi ESE 8.1 mph - N/A Rain Light Rain
2:30 AM 37.4 °F 31.4 °F 35.6 °F 93% 29.86 in 3.7 mi East 8.1 mph - N/A Rain Light Rain
3:00 AM 37.4 °F 32.8 °F 35.6 °F 93% 29.86 in 3.7 mi East 5.8 mph - N/A Rain Light Rain
3:30 AM 37.4 °F 32.1 °F 35.6 °F 93% 29.86 in 3.7 mi East 6.9 mph - N/A Rain Light Rain
4:00 AM 37.4 °F 32.8 °F 35.6 °F 93% 29.86 in 3.7 mi East 5.8 mph - N/A Rain Light Rain
4:30 AM 37.4 °F 33.8 °F 37.4 °F 100% 29.86 in 3.1 mi East 4.6 mph - N/A Rain Light Rain
5:00 AM 37.4 °F 32.8 °F 37.4 °F 100% 29.89 in 3.1 mi SE 5.8 mph - N/A   Light Drizzle
5:30 AM 37.4 °F 34.9 °F 37.4 °F 100% 29.89 in 3.1 mi SSE 3.5 mph - N/A Rain Light Rain
6:00 AM 38 °F - 37 °F 94% 29.92 in 4 mi SSE 4.5 mph - - Rain Light Rain
6:00 AM 37.4 °F 33.8 °F 37.4 °F 100% 29.89 in 3.7 mi SSE 4.6 mph - N/A Rain Light Rain
6:30 AM 37.4 °F 32.8 °F 37.4 °F 100% 29.89 in 3.7 mi SE 5.8 mph - N/A Rain Light Rain
7:00 AM 37.4 °F 32.1 °F 37.4 °F 100% 29.92 in 2.8 mi SE 6.9 mph - N/A Rain Light Rain
7:30 AM 37.4 °F 32.1 °F 37.4 °F 100% 29.92 in 4.3 mi SE 6.9 mph - N/A   Light Drizzle
8:00 AM 39.2 °F 32.5 °F 37.4 °F 93% 29.92 in 5.0 mi SE 10.4 mph - N/A   Light Drizzle
8:30 AM 37.4 °F 29.8 °F 35.6 °F 93% 29.92 in 5.0 mi SE 11.5 mph - N/A   Light Drizzle
9:00 AM 37.4 °F 29.3 °F 35.6 °F 93% 29.95 in 5.6 mi SE 12.7 mph - N/A   Mostly Cloudy
9:30 AM 39.2 °F 32.0 °F 35.6 °F 87% 29.95 in 5.6 mi SE 11.5 mph - N/A   Mostly Cloudy
10:00 AM 39.2 °F 31.2 °F 35.6 °F 87% 29.95 in 5.6 mi SE 13.8 mph - N/A   Mostly Cloudy
10:30 AM 39.2 °F 31.2 °F 35.6 °F 87% 29.95 in 5.6 mi SE 13.8 mph - N/A   Mostly Cloudy
11:00 AM 39.2 °F 31.6 °F 35.6 °F 87% 29.98 in 5.6 mi SE 12.7 mph - N/A   Mostly Cloudy
11:30 AM 39.2 °F 31.6 °F 35.6 °F 87% 29.98 in 5.6 mi SE 12.7 mph - N/A   Light Drizzle
12:00 PM 39 °F - 36 °F 87% 30.00 in 6 mi SE 13.4 mph - - Rain Light Drizzle
12:00 PM 39.2 °F 31.2 °F 35.6 °F 87% 29.98 in 5.6 mi SE 13.8 mph - N/A   Mostly Cloudy
12:30 PM 39.2 °F 31.2 °F 35.6 °F 87% 29.98 in 5.0 mi SSE 13.8 mph - N/A   Light Drizzle
1:00 PM 39.2 °F 31.6 °F 37.4 °F 93% 29.98 in 5.0 mi SE 12.7 mph - N/A   Light Drizzle
1:30 PM 39.2 °F 31.2 °F 37.4 °F 93% 29.95 in 5.6 mi SSE 13.8 mph - N/A   Mostly Cloudy
2:00 PM 39.2 °F 31.6 °F 35.6 °F 87% 29.95 in 6.2 mi SE 12.7 mph - N/A   Mostly Cloudy
2:30 PM 39.2 °F 31.6 °F 35.6 °F 87% 29.95 in 6.2 mi SE 12.7 mph - N/A   Mostly Cloudy
3:00 PM 39.2 °F 32.0 °F 35.6 °F 87% 29.98 in 6.2 mi SE 11.5 mph - N/A   Mostly Cloudy
3:30 PM 39.2 °F 31.6 °F 37.4 °F 93% 29.98 in 5.6 mi SE 12.7 mph - N/A   Light Drizzle
4:00 PM 39.2 °F 32.0 °F 37.4 °F 93% 29.95 in 5.6 mi SE 11.5 mph - N/A   Light Drizzle
4:30 PM 39.2 °F 31.6 °F 37.4 °F 93% 29.95 in 5.6 mi SE 12.7 mph - N/A   Light Drizzle
5:00 PM 39.2 °F 31.6 °F 37.4 °F 93% 29.98 in 5.6 mi SE 12.7 mph - N/A   Light Drizzle
5:30 PM 39.2 °F 31.2 °F 37.4 °F 93% 29.98 in 5.6 mi SE 13.8 mph - N/A   Mostly Cloudy
6:00 PM 39 °F - 36 °F 87% 30.00 in 6 mi SE 13.4 mph - - Rain Light Drizzle
6:00 PM 39.2 °F 31.6 °F 37.4 °F 93% 29.98 in 5.6 mi SE 12.7 mph - N/A   Mostly Cloudy
6:30 PM 39.2 °F 31.2 °F 37.4 °F 93% 29.98 in 5.0 mi SE 13.8 mph - N/A   Light Drizzle
7:00 PM 39.2 °F 31.6 °F 35.6 °F 87% 29.98 in 5.0 mi SE 12.7 mph - N/A   Light Drizzle
7:30 PM 39.2 °F 31.2 °F 35.6 °F 87% 29.98 in 5.6 mi SE 13.8 mph - N/A   Light Drizzle
8:00 PM 39.2 °F 32.0 °F 35.6 °F 87% 29.98 in 5.6 mi SE 11.5 mph - N/A   Light Drizzle
8:30 PM 39.2 °F 32.0 °F 37.4 °F 93% 29.98 in 5.6 mi SE 11.5 mph - N/A   Light Drizzle
9:00 PM 39.2 °F 31.6 °F 37.4 °F 93% 29.98 in 5.6 mi SE 12.7 mph - N/A   Light Drizzle
9:30 PM 39.2 °F 31.2 °F 37.4 °F 93% 29.98 in 4.3 mi SE 13.8 mph - N/A Rain Light Rain
10:00 PM 41.0 °F 34.3 °F 37.4 °F 87% 29.98 in 4.3 mi SE 11.5 mph - N/A Rain Light Rain
10:30 PM 41.0 °F 33.9 °F 37.4 °F 87% 29.98 in 4.3 mi SE 12.7 mph - N/A Rain Light Rain
11:00 PM 41.0 °F 33.1 °F 39.2 °F 93% 29.98 in 3.1 mi SE 15.0 mph - N/A   Mostly Cloudy
11:30 PM 41.0 °F 33.5 °F 39.2 °F 93% 29.95 in 3.1 mi SSE 13.8 mph - N/A   Mostly Cloudy